Year,Month,Day,Hour,Minute,Value (Times are PST for temperature in C)
2006,10,23,00,00,6.60
2006,10,23,00,01,6.60
2006,10,23,00,02,6.60
2006,10,23,00,03,6.60
2006,10,23,00,04,6.60
2006,10,23,00,05,6.60
2006,10,23,00,06,6.60
2006,10,23,00,07,6.70
2006,10,23,00,08,6.70
2006,10,23,00,09,6.60
2006,10,23,00,10,6.60
2006,10,23,00,11,6.60
2006,10,23,00,12,6.60
2006,10,23,00,13,6.60
2006,10,23,00,14,6.60
2006,10,23,00,15,6.60
2006,10,23,00,16,6.60
2006,10,23,00,17,6.60
2006,10,23,00,18,6.60
2006,10,23,00,19,6.60
2006,10,23,00,20,6.60
2006,10,23,00,21,6.60
2006,10,23,00,22,6.60
2006,10,23,00,23,6.60
2006,10,23,00,24,6.70
2006,10,23,00,25,6.70
2006,10,23,00,26,6.70
2006,10,23,00,27,6.70
2006,10,23,00,28,6.70
2006,10,23,00,29,6.70
2006,10,23,00,30,6.70
2006,10,23,00,31,6.70
2006,10,23,00,32,6.70
2006,10,23,00,33,6.70
2006,10,23,00,34,6.60
2006,10,23,00,35,6.60
2006,10,23,00,36,6.60
2006,10,23,00,37,6.60
2006,10,23,00,38,6.60
2006,10,23,00,39,6.60
2006,10,23,00,40,6.60
2006,10,23,00,41,6.60
2006,10,23,00,42,6.70
2006,10,23,00,43,6.70
2006,10,23,00,44,6.70
2006,10,23,00,45,6.70
2006,10,23,00,46,6.70
2006,10,23,00,47,6.70
2006,10,23,00,48,6.70
2006,10,23,00,49,6.80
2006,10,23,00,50,6.80
2006,10,23,00,51,6.80
2006,10,23,00,52,6.80
2006,10,23,00,53,6.70
2006,10,23,00,54,6.70
2006,10,23,00,55,6.60
2006,10,23,00,56,6.60
2006,10,23,00,57,6.60
2006,10,23,00,58,6.60
2006,10,23,00,59,6.60
2006,10,23,01,00,6.60
2006,10,23,01,01,6.60
2006,10,23,01,02,6.60
2006,10,23,01,03,6.60
2006,10,23,01,04,6.60
2006,10,23,01,05,6.60
2006,10,23,01,06,6.50
2006,10,23,01,07,6.50
2006,10,23,01,08,6.60
2006,10,23,01,09,6.60
2006,10,23,01,10,6.60
2006,10,23,01,11,6.60
2006,10,23,01,12,6.50
2006,10,23,01,13,6.60
2006,10,23,01,14,6.60
2006,10,23,01,15,6.70
2006,10,23,01,16,6.80
2006,10,23,01,17,6.80
2006,10,23,01,18,6.80
2006,10,23,01,19,6.80
2006,10,23,01,20,6.80
2006,10,23,01,21,6.70
2006,10,23,01,22,6.70
2006,10,23,01,23,6.70
2006,10,23,01,24,6.70
2006,10,23,01,25,6.70
2006,10,23,01,26,6.80
2006,10,23,01,27,6.80
2006,10,23,01,28,6.80
2006,10,23,01,29,6.70
2006,10,23,01,30,6.80
2006,10,23,01,31,6.80
2006,10,23,01,32,6.80
2006,10,23,01,33,6.80
2006,10,23,01,34,6.80
2006,10,23,01,35,6.80
2006,10,23,01,36,6.90
2006,10,23,01,37,6.90
2006,10,23,01,38,6.90
2006,10,23,01,39,6.90
2006,10,23,01,40,6.90
2006,10,23,01,41,6.80
2006,10,23,01,42,6.80
2006,10,23,01,43,6.80
2006,10,23,01,44,6.80
2006,10,23,01,45,6.70
2006,10,23,01,46,6.70
2006,10,23,01,47,6.70
2006,10,23,01,48,6.70
2006,10,23,01,49,6.60
2006,10,23,01,50,6.60
2006,10,23,01,51,6.60
2006,10,23,01,52,6.60
2006,10,23,01,53,6.60
2006,10,23,01,54,6.60
2006,10,23,01,55,6.60
2006,10,23,01,56,6.50
2006,10,23,01,57,6.40
2006,10,23,01,58,6.40
2006,10,23,01,59,6.40
2006,10,23,02,00,6.40
2006,10,23,02,01,6.40
2006,10,23,02,02,6.40
2006,10,23,02,03,6.40
2006,10,23,02,04,6.40
2006,10,23,02,05,6.40
2006,10,23,02,06,6.40
2006,10,23,02,07,6.40
2006,10,23,02,08,6.30
2006,10,23,02,09,6.30
2006,10,23,02,10,6.30
2006,10,23,02,11,6.30
2006,10,23,02,12,6.30
2006,10,23,02,13,6.20
2006,10,23,02,14,6.20
2006,10,23,02,15,6.20
2006,10,23,02,16,6.20
2006,10,23,02,17,6.20
2006,10,23,02,18,6.20
2006,10,23,02,19,6.20
2006,10,23,02,20,6.20
2006,10,23,02,21,6.20
2006,10,23,02,22,6.20
2006,10,23,02,23,6.20
2006,10,23,02,24,6.20
2006,10,23,02,25,6.10
2006,10,23,02,26,6.10
2006,10,23,02,27,6.10
2006,10,23,02,28,6.10
2006,10,23,02,29,6.10
2006,10,23,02,30,6.00
2006,10,23,02,31,6.00
2006,10,23,02,32,6.00
2006,10,23,02,33,6.00
2006,10,23,02,34,6.00
2006,10,23,02,35,6.00
2006,10,23,02,36,6.00
2006,10,23,02,37,6.00
2006,10,23,02,38,6.00
2006,10,23,02,39,6.00
2006,10,23,02,40,6.00
2006,10,23,02,41,6.00
2006,10,23,02,42,6.00
2006,10,23,02,43,6.00
2006,10,23,02,44,6.00
2006,10,23,02,45,6.00
2006,10,23,02,46,6.00
2006,10,23,02,47,6.00
2006,10,23,02,48,6.00
2006,10,23,02,49,5.90
2006,10,23,02,50,5.80
2006,10,23,02,51,5.70
2006,10,23,02,52,5.70
2006,10,23,02,53,5.60
2006,10,23,02,54,5.60
2006,10,23,02,55,5.60
2006,10,23,02,56,5.60
2006,10,23,02,57,5.60
2006,10,23,02,58,5.60
2006,10,23,02,59,5.60
2006,10,23,03,00,5.60
2006,10,23,03,01,5.60
2006,10,23,03,02,5.70
2006,10,23,03,03,5.70
2006,10,23,03,04,5.70
2006,10,23,03,05,5.70
2006,10,23,03,06,5.70
2006,10,23,03,07,5.70
2006,10,23,03,08,5.70
2006,10,23,03,09,5.70
2006,10,23,03,10,5.70
2006,10,23,03,11,5.70
2006,10,23,03,12,5.70
2006,10,23,03,13,5.70
2006,10,23,03,14,5.70
2006,10,23,03,15,5.70
2006,10,23,03,16,5.70
2006,10,23,03,17,5.70
2006,10,23,03,18,5.70
2006,10,23,03,19,5.70
2006,10,23,03,20,5.80
2006,10,23,03,21,5.80
2006,10,23,03,22,5.80
2006,10,23,03,23,5.80
2006,10,23,03,24,5.80
2006,10,23,03,25,5.80
2006,10,23,03,26,5.80
2006,10,23,03,27,5.80
2006,10,23,03,28,5.80
2006,10,23,03,29,5.80
2006,10,23,03,30,5.90
2006,10,23,03,31,5.90
2006,10,23,03,32,5.90
2006,10,23,03,33,5.90
2006,10,23,03,34,5.90
2006,10,23,03,35,5.90
2006,10,23,03,36,5.90
2006,10,23,03,37,5.90
2006,10,23,03,38,5.90
2006,10,23,03,39,6.00
2006,10,23,03,40,6.00
2006,10,23,03,41,6.20
2006,10,23,03,42,6.20
2006,10,23,03,43,6.30
2006,10,23,03,44,6.30
2006,10,23,03,45,6.20
2006,10,23,03,46,6.20
2006,10,23,03,47,6.20
2006,10,23,03,48,6.20
2006,10,23,03,49,6.20
2006,10,23,03,50,6.20
2006,10,23,03,51,6.20
2006,10,23,03,52,6.20
2006,10,23,03,53,6.20
2006,10,23,03,54,6.20
2006,10,23,03,55,6.20
2006,10,23,03,56,6.20
2006,10,23,03,57,6.20
2006,10,23,03,58,6.20
2006,10,23,03,59,6.20
2006,10,23,04,00,6.10
2006,10,23,04,01,6.00
2006,10,23,04,02,5.90
2006,10,23,04,03,5.90
2006,10,23,04,04,5.90
2006,10,23,04,05,5.80
2006,10,23,04,06,5.80
2006,10,23,04,07,5.80
2006,10,23,04,08,5.70
2006,10,23,04,09,5.70
2006,10,23,04,10,5.60
2006,10,23,04,11,5.50
2006,10,23,04,12,5.50
2006,10,23,04,13,5.40
2006,10,23,04,14,5.30
2006,10,23,04,15,5.30
2006,10,23,04,16,5.30
2006,10,23,04,17,5.30
2006,10,23,04,18,5.30
2006,10,23,04,19,5.20
2006,10,23,04,20,5.20
2006,10,23,04,21,5.10
2006,10,23,04,22,5.10
2006,10,23,04,23,5.10
2006,10,23,04,24,5.10
2006,10,23,04,25,5.10
2006,10,23,04,26,5.10
2006,10,23,04,27,5.10
2006,10,23,04,28,5.10
2006,10,23,04,29,5.10
2006,10,23,04,30,5.10
2006,10,23,04,31,5.10
2006,10,23,04,32,5.10
2006,10,23,04,33,5.10
2006,10,23,04,34,5.20
2006,10,23,04,35,5.20
2006,10,23,04,36,5.20
2006,10,23,04,37,5.20
2006,10,23,04,38,5.30
2006,10,23,04,39,5.30
2006,10,23,04,40,5.30
2006,10,23,04,41,5.30
2006,10,23,04,42,5.30
2006,10,23,04,43,5.20
2006,10,23,04,44,5.10
2006,10,23,04,45,5.10
2006,10,23,04,46,5.10
2006,10,23,04,47,5.00
2006,10,23,04,48,4.90
2006,10,23,04,49,4.90
2006,10,23,04,50,4.90
2006,10,23,04,51,4.90
2006,10,23,04,52,4.90
2006,10,23,04,53,4.80
2006,10,23,04,54,4.80
2006,10,23,04,55,4.80
2006,10,23,04,56,4.90
2006,10,23,04,57,4.90
2006,10,23,04,58,4.90
2006,10,23,04,59,4.90
2006,10,23,05,00,4.90
2006,10,23,05,01,4.90
2006,10,23,05,02,4.90
2006,10,23,05,03,4.80
2006,10,23,05,04,4.80
2006,10,23,05,05,4.80
2006,10,23,05,06,4.70
2006,10,23,05,07,4.70
2006,10,23,05,08,4.70
2006,10,23,05,09,4.60
2006,10,23,05,10,4.60
2006,10,23,05,11,4.60
2006,10,23,05,12,4.60
2006,10,23,05,13,4.60
2006,10,23,05,14,4.60
2006,10,23,05,15,4.60
2006,10,23,05,16,4.60
2006,10,23,05,17,4.60
2006,10,23,05,18,4.60
2006,10,23,05,19,4.70
2006,10,23,05,20,4.70
2006,10,23,05,21,4.70
2006,10,23,05,22,4.70
2006,10,23,05,23,4.70
2006,10,23,05,24,4.70
2006,10,23,05,25,4.60
2006,10,23,05,26,4.60
2006,10,23,05,27,4.60
2006,10,23,05,28,4.60
2006,10,23,05,29,4.60
2006,10,23,05,30,4.60
2006,10,23,05,31,4.60
2006,10,23,05,32,4.60
2006,10,23,05,33,4.50
2006,10,23,05,34,4.50
2006,10,23,05,35,4.50
2006,10,23,05,36,4.50
2006,10,23,05,37,4.50
2006,10,23,05,38,4.60
2006,10,23,05,39,4.60
2006,10,23,05,40,4.60
2006,10,23,05,41,4.60
2006,10,23,05,42,4.60
2006,10,23,05,43,4.50
2006,10,23,05,44,4.50
2006,10,23,05,45,4.50
2006,10,23,05,46,4.50
2006,10,23,05,47,4.50
2006,10,23,05,48,4.50
2006,10,23,05,49,4.50
2006,10,23,05,50,4.50
2006,10,23,05,51,4.50
2006,10,23,05,52,4.50
2006,10,23,05,53,4.50
2006,10,23,05,54,4.50
2006,10,23,05,55,4.50
2006,10,23,05,56,4.40
2006,10,23,05,57,4.40
2006,10,23,05,58,4.40
2006,10,23,05,59,4.40
2006,10,23,06,00,4.40
2006,10,23,06,01,4.40
2006,10,23,06,02,4.40
2006,10,23,06,03,4.40
2006,10,23,06,04,4.40
2006,10,23,06,05,4.30
2006,10,23,06,06,4.30
2006,10,23,06,07,4.30
2006,10,23,06,08,4.30
2006,10,23,06,09,4.30
2006,10,23,06,10,4.30
2006,10,23,06,11,4.30
2006,10,23,06,12,4.30
2006,10,23,06,13,4.30
2006,10,23,06,14,4.30
2006,10,23,06,15,4.30
2006,10,23,06,16,4.30
2006,10,23,06,17,4.20
2006,10,23,06,18,4.20
2006,10,23,06,19,4.20
2006,10,23,06,20,4.30
2006,10,23,06,21,4.30
2006,10,23,06,22,4.30
2006,10,23,06,23,4.30
2006,10,23,06,24,4.30
2006,10,23,06,25,4.30
2006,10,23,06,26,4.40
2006,10,23,06,27,4.40
2006,10,23,06,28,4.40
2006,10,23,06,29,4.40
2006,10,23,06,30,4.40
2006,10,23,06,31,4.40
2006,10,23,06,32,4.40
2006,10,23,06,33,4.40
2006,10,23,06,34,4.30
2006,10,23,06,35,4.30
2006,10,23,06,36,4.30
2006,10,23,06,37,4.30
2006,10,23,06,38,4.30
2006,10,23,06,39,4.30
2006,10,23,06,40,4.30
2006,10,23,06,41,4.30
2006,10,23,06,42,4.30
2006,10,23,06,43,4.30
2006,10,23,06,44,4.30
2006,10,23,06,45,4.30
2006,10,23,06,46,4.30
2006,10,23,06,47,4.30
2006,10,23,06,48,4.30
2006,10,23,06,49,4.20
2006,10,23,06,50,4.20
2006,10,23,06,51,4.20
2006,10,23,06,52,4.20
2006,10,23,06,53,4.20
2006,10,23,06,54,4.30
2006,10,23,06,55,4.30
2006,10,23,06,56,4.30
2006,10,23,06,57,4.30
2006,10,23,06,58,4.30
2006,10,23,06,59,4.30
2006,10,23,07,00,4.30
2006,10,23,07,01,4.30
2006,10,23,07,02,4.30
2006,10,23,07,03,4.30
2006,10,23,07,04,4.30
2006,10,23,07,05,4.30
2006,10,23,07,06,4.30
2006,10,23,07,07,4.40
2006,10,23,07,08,4.40
2006,10,23,07,09,4.40
2006,10,23,07,10,4.40
2006,10,23,07,11,4.40
2006,10,23,07,12,4.50
2006,10,23,07,13,4.50
2006,10,23,07,14,4.50
2006,10,23,07,15,4.50
2006,10,23,07,16,4.50
2006,10,23,07,17,4.60
2006,10,23,07,18,4.60
2006,10,23,07,19,4.60
2006,10,23,07,20,4.60
2006,10,23,07,21,4.60
2006,10,23,07,22,4.60
2006,10,23,07,23,4.60
2006,10,23,07,24,4.60
2006,10,23,07,25,4.60
2006,10,23,07,26,4.60
2006,10,23,07,27,4.60
2006,10,23,07,28,4.60
2006,10,23,07,29,4.60
2006,10,23,07,30,4.60
2006,10,23,07,31,4.70
2006,10,23,07,32,4.70
2006,10,23,07,33,4.70
2006,10,23,07,34,4.70
2006,10,23,07,35,4.70
2006,10,23,07,36,4.70
2006,10,23,07,37,4.70
2006,10,23,07,38,4.70
2006,10,23,07,39,4.70
2006,10,23,07,40,4.70
2006,10,23,07,41,4.70
2006,10,23,07,42,4.70
2006,10,23,07,43,4.70
2006,10,23,07,44,4.80
2006,10,23,07,45,4.80
2006,10,23,07,46,4.80
2006,10,23,07,47,4.80
2006,10,23,07,48,4.80
2006,10,23,07,49,4.80
2006,10,23,07,50,4.80
2006,10,23,07,51,4.80
2006,10,23,07,52,4.80
2006,10,23,07,53,4.80
2006,10,23,07,54,4.80
2006,10,23,07,55,4.80
2006,10,23,07,56,4.80
2006,10,23,07,57,4.80
2006,10,23,07,58,4.80
2006,10,23,07,59,4.80
2006,10,23,08,00,4.80
2006,10,23,08,01,4.80
2006,10,23,08,02,4.80
2006,10,23,08,03,4.80
2006,10,23,08,04,4.80
2006,10,23,08,05,4.90
2006,10,23,08,06,4.90
2006,10,23,08,07,4.90
2006,10,23,08,08,4.90
2006,10,23,08,09,4.90
2006,10,23,08,10,4.90
2006,10,23,08,11,4.90
2006,10,23,08,12,4.90
2006,10,23,08,13,4.90
2006,10,23,08,14,4.90
2006,10,23,08,15,4.90
2006,10,23,08,16,4.90
2006,10,23,08,17,5.00
2006,10,23,08,18,5.10
2006,10,23,08,19,5.10
2006,10,23,08,20,5.10
2006,10,23,08,21,5.10
2006,10,23,08,22,5.10
2006,10,23,08,23,5.10
2006,10,23,08,24,5.10
2006,10,23,08,25,5.10
2006,10,23,08,26,5.10
2006,10,23,08,27,5.10
2006,10,23,08,28,5.20
2006,10,23,08,29,5.30
2006,10,23,08,30,5.30
2006,10,23,08,31,5.30
2006,10,23,08,32,5.40
2006,10,23,08,33,5.40
2006,10,23,08,34,5.40
2006,10,23,08,35,5.40
2006,10,23,08,36,5.50
2006,10,23,08,37,5.50
2006,10,23,08,38,5.50
2006,10,23,08,39,5.50
2006,10,23,08,40,5.50
2006,10,23,08,41,5.50
2006,10,23,08,42,5.50
2006,10,23,08,43,5.50
2006,10,23,08,44,5.50
2006,10,23,08,45,5.50
2006,10,23,08,46,5.50
2006,10,23,08,47,5.50
2006,10,23,08,48,5.50
2006,10,23,08,49,5.60
2006,10,23,08,50,5.60
2006,10,23,08,51,5.60
2006,10,23,08,52,5.70
2006,10,23,08,53,5.70
2006,10,23,08,54,5.70
2006,10,23,08,55,5.70
2006,10,23,08,56,5.80
2006,10,23,08,57,5.90
2006,10,23,08,58,5.90
2006,10,23,08,59,6.00
2006,10,23,09,00,6.00
2006,10,23,09,01,6.00
2006,10,23,09,02,6.00
2006,10,23,09,03,6.10
2006,10,23,09,04,6.10
2006,10,23,09,05,6.10
2006,10,23,09,06,6.10
2006,10,23,09,07,6.10
2006,10,23,09,08,6.10
2006,10,23,09,09,6.10
2006,10,23,09,10,6.10
2006,10,23,09,11,6.10
2006,10,23,09,12,6.10
2006,10,23,09,13,6.10
2006,10,23,09,14,6.20
2006,10,23,09,15,6.20
2006,10,23,09,16,6.20
2006,10,23,09,17,6.20
2006,10,23,09,18,6.20
2006,10,23,09,19,6.20
2006,10,23,09,20,6.20
2006,10,23,09,21,6.30
2006,10,23,09,22,6.30
2006,10,23,09,23,6.30
2006,10,23,09,24,6.40
2006,10,23,09,25,6.40
2006,10,23,09,26,6.40
2006,10,23,09,27,6.50
2006,10,23,09,28,6.60
2006,10,23,09,29,6.60
2006,10,23,09,30,6.60
2006,10,23,09,31,6.70
2006,10,23,09,32,6.70
2006,10,23,09,33,6.80
2006,10,23,09,34,6.80
2006,10,23,09,35,6.80
2006,10,23,09,36,6.90
2006,10,23,09,37,7.00
2006,10,23,09,38,7.00
2006,10,23,09,39,7.10
2006,10,23,09,40,7.20
2006,10,23,09,41,7.30
2006,10,23,09,42,7.30
2006,10,23,09,43,7.40
2006,10,23,09,44,7.50
2006,10,23,09,45,7.60
2006,10,23,09,46,7.60
2006,10,23,09,47,7.80
2006,10,23,09,48,7.90
2006,10,23,09,49,8.10
2006,10,23,09,50,8.20
2006,10,23,09,51,8.40
2006,10,23,09,52,8.50
2006,10,23,09,53,8.70
2006,10,23,09,54,8.70
2006,10,23,09,55,8.80
2006,10,23,09,56,8.90
2006,10,23,09,57,8.90
2006,10,23,09,58,8.90
2006,10,23,09,59,9.00
2006,10,23,10,00,9.10
2006,10,23,10,01,9.20
2006,10,23,10,02,9.30
2006,10,23,10,03,9.40
2006,10,23,10,04,9.50
2006,10,23,10,05,9.60
2006,10,23,10,06,9.70
2006,10,23,10,07,9.70
2006,10,23,10,08,9.80
2006,10,23,10,09,9.90
2006,10,23,10,10,9.90
2006,10,23,10,11,10.00
2006,10,23,10,12,10.10
2006,10,23,10,13,10.10
2006,10,23,10,14,10.20
2006,10,23,10,15,10.20
2006,10,23,10,16,10.20
2006,10,23,10,17,10.20
2006,10,23,10,18,10.10
2006,10,23,10,19,10.10
2006,10,23,10,20,10.10
2006,10,23,10,21,10.20
2006,10,23,10,22,10.20
2006,10,23,10,23,10.30
2006,10,23,10,24,10.30
2006,10,23,10,25,10.30
2006,10,23,10,26,10.30
2006,10,23,10,27,10.20
2006,10,23,10,28,10.20
2006,10,23,10,29,10.10
2006,10,23,10,30,10.10
2006,10,23,10,31,10.10
2006,10,23,10,32,10.10
2006,10,23,10,33,10.10
2006,10,23,10,34,10.10
2006,10,23,10,35,10.10
2006,10,23,10,36,10.10
2006,10,23,10,37,10.10
2006,10,23,10,38,10.10
2006,10,23,10,39,10.10
2006,10,23,10,40,10.10
2006,10,23,10,41,10.10
2006,10,23,10,42,10.10
2006,10,23,10,43,10.20
2006,10,23,10,44,10.20
2006,10,23,10,45,10.20
2006,10,23,10,46,10.10
2006,10,23,10,47,10.20
2006,10,23,10,48,10.20
2006,10,23,10,49,10.30
2006,10,23,10,50,10.40
2006,10,23,10,51,10.40
2006,10,23,10,52,10.50
2006,10,23,10,53,10.60
2006,10,23,10,54,10.60
2006,10,23,10,55,10.70
2006,10,23,10,56,10.70
2006,10,23,10,57,10.80
2006,10,23,10,58,10.80
2006,10,23,10,59,10.90
2006,10,23,11,00,10.90
2006,10,23,11,01,10.90
2006,10,23,11,02,10.90
2006,10,23,11,03,11.00
2006,10,23,11,04,11.10
2006,10,23,11,05,11.10
2006,10,23,11,06,11.10
2006,10,23,11,07,11.10
2006,10,23,11,08,11.20
2006,10,23,11,09,11.20
2006,10,23,11,10,11.20
2006,10,23,11,11,11.20
2006,10,23,11,12,11.20
2006,10,23,11,13,11.20
2006,10,23,11,14,11.20
2006,10,23,11,15,11.20
2006,10,23,11,16,11.20
2006,10,23,11,17,11.20
2006,10,23,11,18,11.30
2006,10,23,11,19,11.30
2006,10,23,11,20,11.30
2006,10,23,11,21,11.30
2006,10,23,11,22,11.30
2006,10,23,11,23,11.30
2006,10,23,11,24,11.30
2006,10,23,11,25,11.30
2006,10,23,11,26,11.30
2006,10,23,11,27,11.30
2006,10,23,11,28,11.30
2006,10,23,11,29,11.20
2006,10,23,11,30,11.10
2006,10,23,11,31,11.10
2006,10,23,11,32,11.00
2006,10,23,11,33,10.90
2006,10,23,11,34,10.90
2006,10,23,11,35,10.90
2006,10,23,11,36,10.90
2006,10,23,11,37,10.80
2006,10,23,11,38,10.70
2006,10,23,11,39,10.70
2006,10,23,11,40,10.70
2006,10,23,11,41,10.60
2006,10,23,11,42,10.60
2006,10,23,11,43,10.60
2006,10,23,11,44,10.60
2006,10,23,11,45,10.60
2006,10,23,11,46,10.70
2006,10,23,11,47,10.70
2006,10,23,11,48,10.70
2006,10,23,11,49,10.70
2006,10,23,11,50,10.80
2006,10,23,11,51,10.90
2006,10,23,11,52,10.90
2006,10,23,11,53,10.90
2006,10,23,11,54,10.90
2006,10,23,11,55,10.90
2006,10,23,11,56,10.90
2006,10,23,11,57,10.90
2006,10,23,11,58,10.90
2006,10,23,11,59,10.90
2006,10,23,12,00,11.00
2006,10,23,12,01,11.10
2006,10,23,12,02,11.10
2006,10,23,12,03,11.10
2006,10,23,12,04,11.10
2006,10,23,12,05,11.10
2006,10,23,12,06,11.20
2006,10,23,12,07,11.20
2006,10,23,12,08,11.20
2006,10,23,12,09,11.30
2006,10,23,12,10,11.40
2006,10,23,12,11,11.60
2006,10,23,12,12,11.60
2006,10,23,12,13,11.70
2006,10,23,12,14,11.70
2006,10,23,12,15,11.70
2006,10,23,12,16,11.70
2006,10,23,12,17,11.60
2006,10,23,12,18,11.40
2006,10,23,12,19,11.40
2006,10,23,12,20,11.40
2006,10,23,12,21,11.30
2006,10,23,12,22,11.40
2006,10,23,12,23,11.40
2006,10,23,12,24,11.40
2006,10,23,12,25,11.40
2006,10,23,12,26,11.50
2006,10,23,12,27,11.60
2006,10,23,12,28,11.60
2006,10,23,12,29,11.60
2006,10,23,12,30,11.60
2006,10,23,12,31,11.60
2006,10,23,12,32,11.70
2006,10,23,12,33,11.80
2006,10,23,12,34,11.80
2006,10,23,12,35,11.80
2006,10,23,12,36,11.80
2006,10,23,12,37,11.70
2006,10,23,12,38,11.70
2006,10,23,12,39,11.80
2006,10,23,12,40,11.80
2006,10,23,12,41,11.80
2006,10,23,12,42,11.80
2006,10,23,12,43,11.80
2006,10,23,12,44,11.80
2006,10,23,12,45,11.80
2006,10,23,12,46,11.80
2006,10,23,12,47,11.80
2006,10,23,12,48,11.80
2006,10,23,12,49,11.70
2006,10,23,12,50,11.70
2006,10,23,12,51,11.60
2006,10,23,12,52,11.70
2006,10,23,12,53,11.60
2006,10,23,12,54,11.70
2006,10,23,12,55,11.70
2006,10,23,12,56,11.80
2006,10,23,12,57,11.80
2006,10,23,12,58,11.80
2006,10,23,12,59,11.80
2006,10,23,13,00,11.80
2006,10,23,13,01,11.80
2006,10,23,13,02,11.90
2006,10,23,13,03,11.90
2006,10,23,13,04,11.90
2006,10,23,13,05,11.80
2006,10,23,13,06,11.70
2006,10,23,13,07,11.70
2006,10,23,13,08,11.70
2006,10,23,13,09,11.70
2006,10,23,13,10,11.80
2006,10,23,13,11,11.80
2006,10,23,13,12,11.90
2006,10,23,13,13,11.90
2006,10,23,13,14,12.00
2006,10,23,13,15,12.10
2006,10,23,13,16,12.10
2006,10,23,13,17,12.20
2006,10,23,13,18,12.20
2006,10,23,13,19,12.20
2006,10,23,13,20,12.20
2006,10,23,13,21,12.10
2006,10,23,13,22,12.10
2006,10,23,13,23,12.10
2006,10,23,13,24,12.10
2006,10,23,13,25,12.00
2006,10,23,13,26,11.90
2006,10,23,13,27,11.80
2006,10,23,13,28,11.70
2006,10,23,13,29,11.60
2006,10,23,13,30,11.40
2006,10,23,13,31,11.40
2006,10,23,13,32,11.30
2006,10,23,13,33,11.20
2006,10,23,13,34,11.20
2006,10,23,13,35,11.20
2006,10,23,13,36,11.30
2006,10,23,13,37,11.40
2006,10,23,13,38,11.60
2006,10,23,13,39,11.60
2006,10,23,13,40,11.60
2006,10,23,13,41,11.70
2006,10,23,13,42,11.70
2006,10,23,13,43,11.80
2006,10,23,13,44,11.80
2006,10,23,13,45,11.80
2006,10,23,13,46,11.80
2006,10,23,13,47,11.70
2006,10,23,13,48,11.70
2006,10,23,13,49,11.70
2006,10,23,13,50,11.70
2006,10,23,13,51,11.70
2006,10,23,13,52,11.70
2006,10,23,13,53,11.70
2006,10,23,13,54,11.60
2006,10,23,13,55,11.60
2006,10,23,13,56,11.60
2006,10,23,13,57,11.60
2006,10,23,13,58,11.50
2006,10,23,13,59,11.40
2006,10,23,14,00,11.30
2006,10,23,14,01,11.30
2006,10,23,14,02,11.20
2006,10,23,14,03,11.20
2006,10,23,14,04,11.30
2006,10,23,14,05,11.30
2006,10,23,14,06,11.30
2006,10,23,14,07,11.30
2006,10,23,14,08,11.30
2006,10,23,14,09,11.30
2006,10,23,14,10,11.30
2006,10,23,14,11,11.20
2006,10,23,14,12,11.20
2006,10,23,14,13,11.10
2006,10,23,14,14,11.10
2006,10,23,14,15,11.10
2006,10,23,14,16,11.10
2006,10,23,14,17,11.10
2006,10,23,14,18,11.10
2006,10,23,14,19,11.20
2006,10,23,14,20,11.20
2006,10,23,14,21,11.20
2006,10,23,14,22,11.30
2006,10,23,14,23,11.30
2006,10,23,14,24,11.20
2006,10,23,14,25,11.30
2006,10,23,14,26,11.40
2006,10,23,14,27,11.40
2006,10,23,14,28,11.40
2006,10,23,14,29,11.30
2006,10,23,14,30,11.30
2006,10,23,14,31,11.30
2006,10,23,14,32,11.20
2006,10,23,14,33,11.20
2006,10,23,14,34,11.20
2006,10,23,14,35,11.10
2006,10,23,14,36,11.00
2006,10,23,14,37,10.90
2006,10,23,14,38,10.90
2006,10,23,14,39,10.90
2006,10,23,14,40,10.90
2006,10,23,14,41,10.90
2006,10,23,14,42,10.90
2006,10,23,14,43,10.80
2006,10,23,14,44,10.80
2006,10,23,14,45,10.80
2006,10,23,14,46,10.80
2006,10,23,14,47,10.70
2006,10,23,14,48,10.70
2006,10,23,14,49,10.70
2006,10,23,14,50,10.70
2006,10,23,14,51,10.70
2006,10,23,14,52,10.70
2006,10,23,14,53,10.80
2006,10,23,14,54,10.90
2006,10,23,14,55,10.90
2006,10,23,14,56,10.90
2006,10,23,14,57,10.90
2006,10,23,14,58,10.90
2006,10,23,14,59,10.80
2006,10,23,15,00,10.80
2006,10,23,15,01,10.80
2006,10,23,15,02,10.70
2006,10,23,15,03,10.70
2006,10,23,15,04,10.70
2006,10,23,15,05,10.70
2006,10,23,15,06,10.60
2006,10,23,15,07,10.60
2006,10,23,15,08,10.60
2006,10,23,15,09,10.60
2006,10,23,15,10,10.70
2006,10,23,15,11,10.70
2006,10,23,15,12,10.70
2006,10,23,15,13,10.70
2006,10,23,15,14,10.80
2006,10,23,15,15,10.80
2006,10,23,15,16,10.70
2006,10,23,15,17,10.60
2006,10,23,15,18,10.60
2006,10,23,15,19,10.60
2006,10,23,15,20,10.60
2006,10,23,15,21,10.60
2006,10,23,15,22,10.60
2006,10,23,15,23,10.60
2006,10,23,15,24,10.60
2006,10,23,15,25,10.60
2006,10,23,15,26,10.70
2006,10,23,15,27,10.70
2006,10,23,15,28,10.80
2006,10,23,15,29,10.90
2006,10,23,15,30,10.90
2006,10,23,15,31,10.90
2006,10,23,15,32,10.90
2006,10,23,15,33,10.90
2006,10,23,15,34,10.90
2006,10,23,15,35,10.90
2006,10,23,15,36,10.90
2006,10,23,15,37,10.90
2006,10,23,15,38,10.90
2006,10,23,15,39,10.90
2006,10,23,15,40,10.90
2006,10,23,15,41,10.90
2006,10,23,15,42,10.90
2006,10,23,15,43,10.90
2006,10,23,15,44,10.90
2006,10,23,15,45,10.90
2006,10,23,15,46,10.80
2006,10,23,15,47,10.80
2006,10,23,15,48,10.80
2006,10,23,15,49,10.90
2006,10,23,15,50,10.90
2006,10,23,15,51,10.90
2006,10,23,15,52,10.90
2006,10,23,15,53,10.90
2006,10,23,15,54,10.90
2006,10,23,15,55,10.90
2006,10,23,15,56,10.90
2006,10,23,15,57,10.90
2006,10,23,15,58,10.90
2006,10,23,15,59,11.00
2006,10,23,16,00,11.10
2006,10,23,16,01,11.10
2006,10,23,16,02,11.10
2006,10,23,16,03,11.20
2006,10,23,16,04,11.30
2006,10,23,16,05,11.40
2006,10,23,16,06,11.40
2006,10,23,16,07,11.40
2006,10,23,16,08,11.50
2006,10,23,16,09,11.60
2006,10,23,16,10,11.60
2006,10,23,16,11,11.60
2006,10,23,16,12,11.60
2006,10,23,16,13,11.60
2006,10,23,16,14,11.60
2006,10,23,16,15,11.60
2006,10,23,16,16,11.50
2006,10,23,16,17,11.50
2006,10,23,16,18,11.40
2006,10,23,16,19,11.40
2006,10,23,16,20,11.40
2006,10,23,16,21,11.50
2006,10,23,16,22,11.60
2006,10,23,16,23,11.60
2006,10,23,16,24,11.60
2006,10,23,16,25,11.70
2006,10,23,16,26,11.70
2006,10,23,16,27,11.60
2006,10,23,16,28,11.60
2006,10,23,16,29,11.50
2006,10,23,16,30,11.40
2006,10,23,16,31,11.30
2006,10,23,16,32,11.30
2006,10,23,16,33,11.30
2006,10,23,16,34,11.20
2006,10,23,16,35,11.20
2006,10,23,16,36,11.20
2006,10,23,16,37,11.20
2006,10,23,16,38,11.10
2006,10,23,16,39,11.10
2006,10,23,16,40,11.10
2006,10,23,16,41,11.10
2006,10,23,16,42,11.10
2006,10,23,16,43,11.10
2006,10,23,16,44,11.10
2006,10,23,16,45,11.10
2006,10,23,16,46,10.90
2006,10,23,16,47,10.90
2006,10,23,16,48,10.90
2006,10,23,16,49,10.90
2006,10,23,16,50,10.90
2006,10,23,16,51,10.90
2006,10,23,16,52,10.90
2006,10,23,16,53,10.90
2006,10,23,16,54,10.90
2006,10,23,16,55,10.90
2006,10,23,16,56,10.80
2006,10,23,16,57,10.80
2006,10,23,16,58,10.70
2006,10,23,16,59,10.60
2006,10,23,17,00,10.60
2006,10,23,17,01,10.60
2006,10,23,17,02,10.60
2006,10,23,17,03,10.60
2006,10,23,17,04,10.60
2006,10,23,17,05,10.60
2006,10,23,17,06,10.60
2006,10,23,17,07,10.60
2006,10,23,17,08,10.60
2006,10,23,17,09,10.60
2006,10,23,17,10,10.60
2006,10,23,17,11,10.40
2006,10,23,17,12,10.40
2006,10,23,17,13,10.40
2006,10,23,17,14,10.40
2006,10,23,17,15,10.40
2006,10,23,17,16,10.40
2006,10,23,17,17,10.50
2006,10,23,17,18,10.50
2006,10,23,17,19,10.40
2006,10,23,17,20,10.50
2006,10,23,17,21,10.60
2006,10,23,17,22,10.60
2006,10,23,17,23,10.60
2006,10,23,17,24,10.60
2006,10,23,17,25,10.60
2006,10,23,17,26,10.60
2006,10,23,17,27,10.60
2006,10,23,17,28,10.60
2006,10,23,17,29,10.70
2006,10,23,17,30,10.70
2006,10,23,17,31,10.70
2006,10,23,17,32,10.70
2006,10,23,17,33,10.60
2006,10,23,17,34,10.60
2006,10,23,17,35,10.60
2006,10,23,17,36,10.50
2006,10,23,17,37,10.40
2006,10,23,17,38,10.40
2006,10,23,17,39,10.40
2006,10,23,17,40,10.40
2006,10,23,17,41,10.40
2006,10,23,17,42,10.40
2006,10,23,17,43,10.40
2006,10,23,17,44,10.40
2006,10,23,17,45,10.40
2006,10,23,17,46,10.40